This demonstration page uses our WeatherBlox Daily Observations layout. Learn more.

Left ArrowRight Arrow

39.92423, -83.80882

Hourly Observations for September 20, 2015

Temp ( °F °C ) Dew Point ( °F °C ) Humidity (%) Winds ( mph kmh ) Pressure ( in mb ) Visibility ( mi km ) Precip ( " mm )
12:56 am 00:56 Clear 55 12.7 52 11.1 90 90 N 6 9 30.08 1019 10 16 N/A
1:56 am 01:56 Clear 54 12.2 52 11.1 93 93 N 7 11 30.09 1019 10 16 N/A
2:56 am 02:56 Clear 54 12.2 52 11.1 93 93 NNE 3 6 30.10 1019 10 16 N/A
3:56 am 03:56 Mostly Cloudy 53 11.6 52 11.1 97 97 NNE 5 7 30.11 1020 10 16 N/A
4:56 am 04:56 Clear 51 10.5 50 10 97 97 NNE 5 7 30.12 1020 10 16 N/A
5:56 am 05:56 Clear 50 10 49 9.4 96 96 N 5 7 30.13 1020 10 16 N/A
6:56 am 06:56 Clear 49 9.4 49 9.4 100 100 NNE 3 6 30.15 1021 10 16 N/A
7:56 am 07:56 Sunny with Mist and Fog 49 9.4 49 9.4 100 100 NE 5 7 30.17 1022 6 10 N/A
8:56 am 08:56 Sunny 57 13.8 55 12.7 93 93 ENE 6 9 30.19 1022 10 16 N/A
9:56 am 09:56 Sunny 63 17.2 56 13.3 78 78 NE 8 13 30.19 1022 10 16 N/A
10:56 am 10:56 Mostly Sunny 67 19.4 54 12.2 63 63 NE 10 17 30.20 1023 10 16 N/A
11:56 am 11:56 Partly Cloudy 69 20.5 52 11.1 55 55 E 9 15 30.19 1022 10 16 N/A
12:56 pm 12:56 Mostly Cloudy 67 19.4 50 10 55 55 NE 8 13 30.17 1022 10 16 N/A
1:56 pm 13:56 Partly Cloudy 73 22.7 51 10.5 46 46 N 10 17 30.15 1021 10 16 N/A
2:56 pm 14:56 Mostly Sunny 73 22.7 51 10.5 46 46 NE 9 15 30.12 1020 10 16 N/A
3:56 pm 15:56 Mostly Cloudy 72 22.2 50 10 46 46 N 12 19 30.11 1020 10 16 N/A
4:56 pm 16:56 Partly Cloudy 73 22.7 50 10 45 45 E 8 13 30.10 1019 10 16 N/A
5:56 pm 17:56 Mostly Sunny 74 23.3 50 10 43 43 NE 9 15 30.11 1020 10 16 N/A
6:56 pm 18:56 Sunny 69 20.5 50 10 51 51 NE 8 13 30.10 1019 10 16 N/A
7:56 pm 19:56 Clear 61 16.1 49 9.4 65 65 NE 6 9 30.10 1019 10 16 N/A
8:56 pm 20:56 Clear 57 13.8 49 9.4 75 75 NE 3 6 30.11 1020 10 16 N/A
9:56 pm 21:56 Mostly Cloudy 57 13.8 50 10 78 78 NNE 6 9 30.12 1020 10 16 N/A
10:56 pm 22:56 Mostly Clear 57 13.8 51 10.5 81 81 NE 8 13 30.13 1020 10 16 N/A
11:56 pm 23:56 Clear 55 12.7 51 10.5 87 87 NE 8 13 30.13 1020 10 16 N/A

Powered by AerisWeather